Wind_Speed
33 33 33 32 31 30 32 33 34 34 34 34 36 36 36 35 34 34 34 35 35 35 36 36 36 37 38 39 39 40 40 40 41 42 43 43 44 45 47 48 49 49 50 50
34 33 34 33 32 32 32 33 34 35 34 34 35 36 35 35 34 34 34 34 35 35 36 36 36 37 37 38 39 39 40 40 41 42 43 43 44 45 47 47 48 49 50 50
34 33 33 33 32 32 33 33 33 34 34 35 35 36 36 35 35 35 35 35 35 35 36 37 37 37 37 38 39 40 40 41 42 43 44 44 44 45 46 47 48 49 50 51
34 34 35 34 33 33 34 33 33 34 33 33 34 34 35 34 35 35 35 35 35 36 36 36 37 38 38 38 39 40 40 42 43 44 44 44 46 46 47 47 47 48 49 50
35 36 36 34 34 34 34 33 34 34 33 33 33 34 34 34 35 35 35 35 35 36 36 37 37 39 40 39 39 40 41 42 43 44 44 44 46 47 48 48 48 48 48 49
35 36 37 35 34 34 34 34 33 33 33 34 34 34 34 34 34 35 35 35 35 36 36 37 38 38 39 40 41 40 41 42 43 43 43 44 45 46 46 47 48 48 48 48
35 36 36 35 34 34 34 34 34 34 34 35 35 35 35 35 35 35 35 36 37 37 37 37 38 38 39 39 40 40 41 42 43 43 44 44 44 45 45 45 46 46 47 47
35 36 35 34 34 33 34 34 35 35 35 36 36 36 36 36 37 36 36 36 37 37 38 38 38 38 38 39 40 41 41 41 42 43 44 45 45 45 45 45 45 44 45 45
35 35 35 35 34 34 35 35 35 36 36 37 37 37 37 37 37 37 37 38 37 37 37 38 38 39 39 39 40 40 41 41 42 43 44 44 45 44 44 44 44 44 44 44
35 35 35 35 35 35 36 36 37 37 37 37 38 38 38 37 37 37 38 38 38 38 38 38 39 39 39 39 39 39 39 40 41 42 42 42 42 42 42 42 42 43 43 44
36 35 35 35 35 36 37 37 37 37 37 37 37 37 37 37 37 38 38 38 38 38 38 38 39 39 40 40 39 38 38 38 39 40 40 40 40 40 41 41 42 42 42 43
35 35 35 35 35 36 36 37 37 37 37 37 37 37 37 37 37 37 37 37 37 37 38 38 39 39 39 39 39 38 38 38 38 39 39 39 39 39 39 39 40 41 41 42
35 35 35 35 35 35 36 36 36 36 36 36 36 37 36 36 37 37 37 37 37 38 38 38 38 38 38 38 38 38 38 38 37 37 37 38 38 39 39 39 39 39 39 40
35 35 35 34 34 35 35 36 36 36 36 36 37 37 37 38 38 37 37 37 38 38 38 38 37 37 38 38 37 37 38 38 38 38 38 38 38 39 39 39 39 38 38 38
33 33 34 34 34 35 35 36 36 36 37 37 37 38 38 38 38 38 38 38 38 38 37 37 37 37 37 37 37 37 38 38 38 39 39 39 39 39 39 39 38 38 37 37
33 33 34 34 35 35 35 36 36 36 37 37 37 38 38 37 37 37 38 38 37 37 37 37 37 37 37 36 36 37 38 38 39 39 39 39 39 39 38 38 37 37 37 37
32 33 33 34 34 34 35 35 36 36 36 36 37 37 37 37 37 37 37 37 37 37 37 37 37 37 36 37 37 38 38 38 38 38 38 38 38 38 38 38 37 37 36 37
32 33 33 34 34 35 35 36 36 36 36 36 37 37 37 36 36 37 37 37 37 37 37 37 37 37 37 37 38 38 38 38 38 37 37 37 37 37 37 37 37 37 36 36
33 33 34 34 35 35 36 36 36 37 37 37 37 37 37 37 37 38 38 37 37 37 38 38 38 38 37 38 38 38 37 37 36 36 35 35 35 35 35 36 36 36 36 36
34 35 35 36 36 36 36 37 37 38 38 38 38 38 38 38 39 39 38 38 38 38 38 38 37 37 37 36 36 36 35 34 34 34 34 33 33 33 34 34 34 35 35 36
35 36 36 36 36 37 37 37 38 38 38 38 38 39 39 39 39 38 38 37 37 37 37 37 36 36 36 35 34 33 33 33 33 33 32 32 31 31 32 33 34 34 34 35
36 36 36 37 37 38 38 38 38 38 38 38 38 38 38 38 37 37 37 37 37 36 36 36 35 35 34 34 33 33 32 32 32 32 31 31 31 31 31 31 32 33 33 34
36 36 37 37 37 37 37 37 37 38 38 38 38 37 37 37 37 37 36 36 36 35 35 34 34 34 33 33 32 32 32 31 31 31 31 31 31 31 31 31 31 31 32 32
35 36 36 36 36 36 37 37 37 37 37 37 37 37 36 36 36 36 35 34 34 33 33 32 32 32 32 32 31 30 30 30 30 30 30 30 31 31 31 30 30 30 30 30
36 36 37 37 37 37 37 37 37 37 36 36 36 36 35 35 34 34 33 33 32 32 31 31 31 31 31 30 29 29 29 29 29 29 29 29 29 29 29 29 29 30 30 30
36 36 37 37 37 37 37 37 37 37 36 36 35 35 34 34 33 33 32 32 31 31 31 30 31 31 30 29 28 28 28 28 28 28 27 27 27 27 27 27 28 28 28 29
36 36 36 36 37 36 37 37 37 36 36 35 35 34 34 33 32 32 31 31 30 30 30 30 30 30 29 28 28 28 28 27 27 27 26 26 26 26 25 25 25 26 26 26
Wind_Direction
292 292 292 292 292 289 287 289 290 290 289 288 287 287 288 289 286 282 279 277 276 274 273 273 272 271 270 269 267 265 264 263 262 261 260 261 260 259 259 260 259 258 259 258
292 291 290 290 290 289 288 289 291 290 288 288 287 287 288 288 286 282 279 278 276 274 272 271 271 271 270 269 268 266 265 264 263 263 262 262 262 262 261 261 260 259 259 258
292 292 290 290 292 291 290 289 291 291 290 289 287 287 287 286 286 284 281 279 277 275 273 271 270 270 271 270 268 266 266 265 265 265 264 263 264 263 263 262 262 262 260 259
293 293 291 293 292 291 290 289 290 290 291 291 290 288 287 287 287 286 285 281 278 277 275 273 272 271 271 272 270 267 266 266 266 266 266 265 264 264 264 264 263 263 262 261
292 293 293 294 294 292 291 289 290 290 291 291 291 290 289 287 287 286 285 283 279 278 276 276 274 273 272 272 272 271 269 268 268 267 267 267 266 265 264 263 263 264 264 263
293 293 295 296 294 292 291 289 290 291 291 291 291 290 290 289 287 287 286 284 282 280 278 277 276 275 274 274 273 273 272 270 269 269 269 268 267 267 266 265 264 265 265 265
292 292 294 296 294 293 292 292 291 291 291 291 290 290 290 289 287 287 286 285 283 282 280 278 277 276 275 275 274 273 273 273 272 271 270 269 269 268 267 266 266 265 265 265
292 292 294 295 293 292 293 292 292 292 291 291 290 289 289 288 287 287 286 286 285 283 281 279 278 278 278 276 275 274 273 273 273 273 272 271 270 269 268 267 266 266 266 265
291 291 292 292 292 292 293 292 292 292 292 291 290 289 288 287 287 287 286 286 286 285 283 280 279 279 279 278 277 275 274 273 273 274 273 273 271 270 269 268 267 266 265 265
291 292 291 291 291 292 293 293 292 292 292 291 290 289 288 286 286 286 286 287 286 285 284 282 280 279 280 280 279 277 277 275 275 275 274 274 272 271 270 268 268 267 266 266
291 291 290 290 290 292 292 293 292 293 293 292 292 291 289 288 287 287 287 287 287 285 284 283 282 281 280 280 279 278 278 278 277 276 275 274 273 272 271 270 269 268 268 267
292 291 291 291 291 292 292 293 294 294 293 293 292 291 290 289 288 288 288 288 287 287 286 286 284 283 282 280 278 277 277 277 278 277 275 274 272 272 272 272 271 270 269 269
292 292 292 292 292 292 293 293 294 294 294 294 293 292 291 291 290 289 289 288 288 288 287 287 286 284 283 281 279 278 277 276 277 276 276 275 273 272 271 271 271 271 271 269
292 293 293 293 293 293 294 294 295 295 295 295 294 293 292 292 291 291 290 289 289 289 288 287 287 286 284 283 281 279 277 277 277 276 276 276 275 274 272 271 270 270 270 269
293 293 293 293 293 294 295 295 295 295 296 295 295 294 293 292 291 291 290 290 290 290 289 288 287 286 285 284 282 280 278 277 277 276 276 275 275 274 272 271 270 269 269 268
294 294 294 294 295 295 295 296 296 296 296 296 295 295 294 293 292 291 291 291 290 290 289 288 287 286 285 284 283 282 280 279 278 276 276 276 274 273 272 270 269 268 267 266
295 295 295 295 296 297 297 298 297 297 297 296 296 296 295 294 293 293 292 291 290 290 289 288 287 286 286 285 284 284 283 282 281 278 276 275 274 273 271 269 268 267 266 265
296 297 297 297 297 298 299 298 298 298 298 297 298 297 296 295 295 294 293 292 291 290 289 288 288 287 287 287 286 286 284 283 282 281 278 275 274 273 271 269 268 267 266 265
298 298 299 300 299 299 299 299 299 299 298 298 298 298 297 296 296 295 295 294 292 291 290 289 288 288 288 288 288 287 285 284 284 282 281 278 275 273 272 270 269 267 266 265
299 300 300 300 300 300 300 300 300 300 299 299 299 298 298 296 296 296 295 294 294 292 291 289 289 288 289 289 288 287 286 285 284 282 281 280 278 275 273 271 269 268 267 266
301 302 302 301 300 300 300 300 301 301 300 300 299 299 298 298 297 296 296 295 294 293 292 290 290 289 289 288 288 287 286 285 284 283 282 281 279 277 275 272 270 269 268 267
303 303 303 302 301 301 301 301 302 302 302 301 300 300 300 299 298 298 297 296 295 294 293 292 290 290 289 288 288 287 286 285 284 283 281 280 279 279 277 275 273 271 269 268
304 304 304 304 304 303 303 303 304 304 303 302 302 301 301 300 299 299 298 297 297 296 294 292 291 290 290 289 288 287 285 285 284 282 281 279 278 279 278 277 275 273 271 270
305 306 306 306 306 305 305 306 306 306 305 304 304 303 302 302 301 300 299 298 298 297 296 294 292 292 291 290 288 287 286 285 284 283 282 281 280 280 279 278 276 275 273 272
306 307 307 307 307 307 307 307 307 307 306 306 305 305 304 303 303 302 300 299 298 298 297 295 294 293 292 291 289 287 286 285 285 284 283 282 282 281 280 278 276 275 274 272
308 308 308 308 308 308 308 308 308 307 307 307 307 306 305 304 304 303 302 300 299 298 297 295 295 294 292 291 289 288 286 285 285 285 284 284 283 283 281 280 278 276 274 273
308 308 309 309 309 309 310 310 309 309 308 308 307 307 306 305 305 304 303 301 300 299 297 296 296 295 293 291 289 288 287 285 284 284 284 284 283 283 283 282 281 279 276 274
Height
5556 5554 5551 5548 5547 5545 5542 5539 5536 5535 5533 5531 5528 5526 5524 5521 5519 5517 5516 5515 5514 5513 5513 5512 5512 5511 5511 5511 5511 5512 5512 5513 5514 5515 5516 5516 5517 5519 5520 5522 5523 5525 5527 5529
5548 5545 5542 5540 5538 5536 5534 5531 5528 5526 5524 5522 5519 5517 5514 5512 5509 5508 5506 5505 5504 5503 5502 5502 5501 5500 5500 5500 5500 5500 5500 5501 5501 5502 5502 5503 5504 5505 5506 5507 5509 5510 5512 5515
5538 5536 5533 5531 5531 5528 5525 5523 5520 5517 5516 5512 5510 5507 5505 5502 5500 5498 5496 5495 5493 5492 5491 5490 5490 5489 5489 5489 5488 5488 5488 5488 5489 5489 5489 5490 5491 5491 5492 5493 5494 5496 5497 5499
5528 5527 5523 5526 5522 5519 5515 5513 5511 5507 5505 5503 5500 5497 5495 5492 5490 5488 5486 5485 5483 5482 5480 5479 5479 5478 5478 5477 5477 5477 5476 5476 5476 5476 5476 5477 5477 5477 5478 5478 5479 5480 5482 5484
5519 5515 5514 5515 5512 5509 5506 5504 5502 5498 5496 5493 5490 5488 5486 5483 5481 5479 5477 5475 5473 5471 5470 5469 5468 5467 5466 5466 5465 5465 5464 5464 5463 5463 5463 5463 5463 5463 5463 5464 5465 5466 5467 5469
5510 5506 5505 5506 5502 5498 5496 5495 5493 5489 5487 5484 5481 5479 5478 5474 5471 5469 5467 5465 5463 5461 5460 5458 5456 5455 5455 5454 5453 5452 5452 5451 5450 5449 5449 5449 5449 5449 5449 5449 5450 5451 5453 5454
5502 5498 5496 5496 5493 5490 5488 5487 5483 5479 5477 5474 5471 5470 5467 5464 5462 5460 5457 5455 5453 5451 5449 5447 5445 5444 5443 5442 5441 5440 5439 5438 5437 5436 5436 5435 5435 5435 5435 5435 5436 5437 5439 5439
5493 5490 5491 5486 5483 5481 5479 5475 5472 5470 5467 5465 5462 5459 5457 5454 5452 5450 5447 5445 5442 5440 5438 5436 5434 5433 5431 5430 5428 5427 5426 5425 5424 5423 5422 5422 5421 5421 5421 5421 5422 5423 5424 5425
5486 5485 5481 5477 5474 5471 5468 5466 5463 5460 5457 5454 5452 5449 5446 5444 5442 5439 5437 5434 5432 5429 5427 5425 5423 5421 5419 5418 5416 5414 5413 5412 5411 5410 5409 5408 5407 5407 5407 5407 5408 5409 5409 5410
5476 5474 5471 5468 5465 5462 5459 5456 5453 5450 5447 5444 5441 5438 5436 5433 5431 5429 5426 5423 5421 5418 5416 5414 5411 5409 5407 5405 5404 5402 5401 5399 5398 5397 5395 5394 5394 5394 5394 5394 5394 5395 5395 5396
5466 5464 5461 5459 5455 5452 5449 5446 5443 5440 5437 5433 5431 5428 5425 5423 5420 5418 5415 5412 5409 5407 5404 5402 5399 5397 5395 5393 5391 5390 5388 5387 5385 5384 5383 5382 5381 5381 5381 5381 5381 5382 5382 5382
5458 5455 5452 5449 5446 5443 5439 5436 5433 5430 5427 5423 5420 5417 5415 5412 5409 5407 5404 5401 5398 5395 5393 5390 5387 5385 5383 5380 5379 5377 5376 5374 5373 5372 5370 5370 5369 5369 5368 5369 5369 5368 5369 5369
5448 5444 5441 5438 5436 5433 5430 5427 5423 5420 5417 5414 5410 5407 5404 5401 5398 5395 5393 5390 5387 5384 5381 5378 5376 5373 5371 5368 5366 5365 5363 5362 5360 5359 5358 5357 5357 5357 5357 5357 5356 5356 5355 5355
5438 5435 5432 5429 5426 5423 5420 5417 5413 5410 5407 5404 5400 5397 5394 5391 5387 5384 5381 5379 5376 5373 5370 5367 5364 5361 5358 5356 5354 5352 5351 5349 5348 5347 5346 5345 5344 5344 5343 5343 5344 5343 5343 5343
5428 5425 5423 5420 5416 5413 5410 5407 5404 5400 5397 5393 5390 5387 5383 5380 5376 5373 5370 5367 5364 5361 5358 5355 5352 5349 5347 5344 5342 5340 5339 5337 5336 5335 5333 5332 5331 5331 5330 5330 5330 5330 5331 5331
5419 5416 5413 5410 5407 5404 5401 5397 5394 5390 5387 5383 5379 5376 5372 5369 5365 5362 5359 5356 5353 5350 5346 5344 5341 5338 5335 5333 5330 5328 5326 5324 5323 5321 5320 5319 5318 5317 5317 5317 5317 5317 5318 5318
5411 5407 5404 5401 5398 5394 5391 5387 5384 5380 5376 5373 5369 5365 5361 5358 5354 5351 5348 5344 5341 5338 5335 5332 5329 5326 5324 5321 5319 5316 5314 5312 5310 5308 5307 5306 5305 5304 5304 5304 5304 5304 5305 5305
5402 5398 5395 5392 5388 5385 5381 5377 5373 5370 5366 5362 5358 5354 5351 5347 5344 5340 5337 5333 5330 5327 5323 5320 5317 5314 5312 5309 5307 5304 5302 5299 5297 5296 5294 5293 5292 5291 5291 5291 5291 5291 5292 5293
5392 5389 5386 5382 5378 5375 5371 5367 5363 5359 5355 5351 5348 5344 5340 5336 5333 5329 5325 5322 5318 5315 5312 5308 5305 5302 5300 5297 5294 5292 5289 5287 5285 5283 5282 5280 5279 5279 5278 5278 5278 5279 5279 5280
5383 5380 5376 5372 5368 5364 5361 5357 5353 5349 5344 5341 5337 5333 5329 5325 5321 5317 5314 5310 5306 5303 5300 5296 5293 5290 5288 5285 5282 5280 5277 5275 5273 5272 5270 5269 5268 5267 5266 5266 5266 5266 5267 5267
5374 5370 5366 5362 5358 5354 5350 5346 5342 5338 5334 5329 5326 5322 5318 5313 5309 5305 5302 5299 5295 5291 5288 5284 5281 5278 5276 5273 5271 5268 5266 5264 5262 5260 5259 5258 5256 5255 5255 5254 5254 5254 5255 5255
5364 5360 5356 5352 5348 5344 5339 5335 5331 5327 5323 5318 5314 5310 5306 5302 5298 5294 5290 5287 5283 5279 5276 5273 5270 5267 5264 5262 5260 5257 5255 5253 5251 5250 5248 5247 5246 5245 5244 5243 5243 5243 5243 5243
5354 5350 5346 5342 5337 5333 5329 5325 5320 5316 5312 5307 5303 5299 5295 5291 5287 5283 5280 5276 5272 5268 5265 5262 5259 5256 5253 5251 5249 5247 5245 5243 5241 5239 5238 5236 5235 5234 5233 5232 5232 5231 5231 5231
5345 5341 5336 5332 5327 5323 5319 5314 5310 5305 5301 5296 5292 5288 5284 5280 5276 5272 5268 5264 5261 5257 5254 5251 5248 5245 5243 5240 5238 5236 5234 5232 5231 5229 5227 5226 5225 5224 5223 5222 5221 5220 5220 5220
5335 5331 5326 5322 5317 5313 5309 5304 5299 5294 5290 5286 5281 5277 5273 5269 5265 5261 5257 5254 5250 5247 5244 5241 5238 5235 5233 5230 5228 5226 5224 5222 5221 5219 5217 5216 5215 5213 5212 5211 5210 5210 5210 5210
5326 5321 5316 5312 5307 5303 5298 5293 5289 5284 5280 5276 5271 5267 5263 5259 5255 5251 5248 5244 5240 5237 5234 5231 5228 5226 5223 5221 5218 5216 5214 5213 5211 5209 5208 5206 5205 5204 5202 5201 5200 5200 5199 5199
5316 5311 5307 5302 5297 5293 5288 5283 5279 5274 5270 5266 5261 5257 5253 5249 5245 5242 5238 5234 5231 5228 5225 5222 5219 5216 5213 5211 5209 5207 5205 5203 5201 5200 5198 5197 5196 5194 5193 5192 5191 5190 5190 5189